Wind_Speed
17 18 18 18 18 18 19 19 19 19 20 19 19 19 18 18 18 18 18 19 19 19 19 19 19 19 20 20 20 21 21 21 21 21 21 21 22 21 20 20 21 21 20 20 21 21 20 19 19 19 18 18 16 14 13 13 15 18 24 32 37 39 41
18 18 19 19 19 20 19 19 19 19 19 19 18 18 18 18 18 18 18 18 18 18 18 18 18 18 19 20 20 20 20 20 21 21 21 21 21 21 20 20 21 21 20 21 22 23 23 23 21 19 19 19 18 17 18 18 17 16 17 22 31 36 39
19 19 19 20 20 20 20 19 19 18 18 18 18 17 17 17 17 17 18 18 17 17 17 17 17 17 18 19 19 19 18 19 19 20 20 20 21 21 20 20 20 20 20 21 23 24 25 25 25 23 23 23 23 23 24 23 22 20 18 16 20 28 36
20 20 20 20 20 20 20 19 19 18 18 17 17 17 16 16 15 16 16 16 16 16 16 16 17 17 17 17 17 17 17 17 17 18 18 18 19 19 19 19 20 20 20 21 22 24 25 26 25 24 24 25 25 25 25 24 23 22 20 17 16 19 26
21 21 21 20 20 20 20 19 18 18 18 17 17 17 16 16 15 15 15 16 16 16 16 16 16 16 16 16 16 16 16 16 16 16 16 17 17 17 18 18 19 20 20 20 22 23 24 24 24 23 23 23 24 24 24 24 24 22 21 20 18 18 21
21 21 21 20 20 20 20 19 17 17 17 17 17 17 17 16 16 15 15 15 16 16 16 15 15 15 16 16 16 16 15 15 15 15 15 15 15 15 16 16 17 18 19 19 20 22 23 23 23 23 22 22 22 22 23 24 24 23 22 22 21 20 21
22 21 21 20 19 19 19 18 17 16 17 17 17 17 16 16 16 16 15 15 15 15 15 16 15 15 15 15 16 16 15 15 15 15 15 15 15 14 15 15 15 16 17 18 19 20 21 21 22 21 21 21 21 22 22 23 23 22 23 22 22 21 21
23 21 21 19 18 18 18 17 16 17 17 17 17 17 17 16 16 16 16 16 15 15 15 15 15 16 16 15 15 15 15 14 14 14 14 15 15 15 14 14 14 15 15 16 17 17 19 19 20 20 20 20 20 21 21 22 22 22 22 22 22 22 21
24 21 20 19 17 16 16 15 15 16 17 17 17 17 17 17 17 17 17 17 16 16 16 16 16 16 16 16 16 16 15 15 14 14 14 14 14 14 15 14 14 14 15 15 16 16 16 17 17 18 18 19 19 19 20 20 21 21 21 21 22 21 21
25 22 20 19 17 16 15 15 15 16 17 17 16 17 17 17 17 17 17 17 17 17 16 16 16 16 16 16 16 16 16 16 15 15 14 14 14 14 14 14 14 14 14 15 15 15 15 15 15 16 16 17 17 17 18 18 19 20 21 21 21 21 21
24 22 20 20 19 17 15 15 16 16 16 16 16 16 16 16 16 17 17 17 17 17 16 16 16 16 16 16 17 17 17 17 17 16 16 15 14 14 14 13 14 13 13 14 14 15 14 14 14 14 14 15 15 16 16 16 16 17 19 19 19 19 19
23 22 21 21 20 18 17 16 17 17 17 16 16 16 15 15 16 16 16 17 17 17 16 16 15 15 16 16 17 17 18 18 18 18 18 17 16 16 15 14 14 14 13 13 13 14 14 14 13 13 13 14 15 15 16 15 15 16 17 18 17 17 18
20 21 23 23 21 18 17 17 16 17 18 18 18 17 17 16 16 17 17 17 17 17 16 16 16 16 16 16 17 18 18 19 19 20 19 19 18 18 17 16 15 15 14 14 14 14 14 15 15 14 14 14 15 15 16 16 16 16 17 18 18 17 17
19 18 20 23 22 19 17 18 17 17 18 19 18 19 19 19 18 18 18 18 18 17 17 17 17 17 17 17 17 17 18 19 19 20 20 20 20 19 18 18 17 16 16 16 16 16 16 16 17 17 16 16 16 17 17 18 18 18 18 18 19 19 18
25 23 24 23 22 20 19 19 19 19 19 20 19 20 20 21 21 21 21 21 21 20 19 19 19 19 19 19 19 18 18 18 18 19 19 20 20 20 20 20 19 18 18 18 18 18 18 18 19 19 19 19 19 19 19 19 20 20 20 20 20 21 20
29 32 34 31 27 25 23 22 22 22 22 22 21 22 22 21 21 22 23 23 22 22 22 21 21 21 21 21 21 20 19 18 18 18 18 19 19 19 19 19 20 20 20 20 20 20 20 20 21 21 21 21 21 21 21 21 21 21 22 23 23 23 23
30 33 36 36 33 31 29 27 26 26 26 25 25 26 26 24 23 23 24 23 23 23 23 23 24 26 25 24 23 23 22 20 19 19 19 19 18 18 18 18 18 19 20 20 21 21 22 22 23 23 23 23 23 23 24 23 23 23 23 24 25 25 25
35 35 35 35 35 34 32 29 27 28 28 28 28 28 28 27 26 26 26 26 26 25 25 25 26 26 26 26 25 24 24 24 22 21 21 21 20 19 20 19 19 20 20 21 21 21 22 22 23 24 24 25 25 25 26 26 26 26 26 26 26 27 27
36 36 36 35 34 33 31 29 28 28 28 28 28 27 26 27 29 29 29 29 28 28 28 28 28 27 26 26 26 25 26 26 26 25 24 24 23 22 22 22 22 22 22 23 24 24 24 24 24 25 25 25 26 26 27 27 27 28 28 27 28 28 28
35 35 35 35 35 33 32 30 31 31 30 29 29 29 29 30 31 30 29 29 29 29 30 30 30 29 27 26 27 27 28 29 29 29 27 26 26 25 26 26 26 26 27 27 27 27 27 28 28 28 28 28 28 29 29 29 28 28 28 29 29 29 30
39 38 37 37 37 36 35 34 34 34 34 33 33 33 33 33 32 30 30 31 31 31 31 31 31 30 28 28 27 25 26 28 30 30 29 28 29 29 29 30 31 31 32 32 32 32 32 31 31 32 32 32 32 32 32 32 32 32 31 31 32 32 32
44 43 42 41 40 40 39 39 39 38 38 38 38 38 38 37 37 36 37 38 37 35 34 35 37 36 33 31 28 24 25 27 28 29 29 29 29 30 30 32 33 34 35 35 36 36 36 36 36 36 35 35 35 35 35 35 35 36 36 36 36 36 36
47 47 47 47 46 45 45 44 44 43 43 42 41 41 41 41 42 42 42 41 40 39 39 39 40 40 38 37 36 36 38 38 35 33 32 32 32 32 33 34 35 36 36 37 38 39 39 39 39 39 40 39 39 39 38 38 38 38 38 38 38 38 38
50 50 51 51 51 51 50 50 50 50 49 48 47 46 45 45 45 45 44 44 43 43 43 42 43 43 43 43 44 46 47 46 44 41 39 38 37 38 39 39 39 39 39 39 40 40 41 41 42 42 43 43 42 43 43 43 42 41 40 40 39 39 39
53 54 54 55 55 55 55 55 55 54 53 53 52 52 51 50 49 48 47 46 46 46 46 46 46 46 46 46 46 46 46 46 46 45 43 42 40 39 41 42 43 43 43 43 43 43 43 44 44 45 46 45 45 45 46 47 47 46 46 45 44 44 44
55 56 56 57 58 58 58 58 58 58 57 56 55 55 54 53 52 51 49 48 47 47 47 47 48 48 48 47 47 47 46 46 46 45 45 44 42 41 43 44 45 46 46 46 46 47 47 47 49 50 50 49 49 49 49 50 50 50 50 50 49 49 49
52 53 54 55 57 57 58 58 59 59 59 59 58 58 57 55 54 53 51 50 49 49 48 47 47 47 48 47 47 46 47 47 46 45 45 45 43 43 44 45 46 47 47 48 48 49 49 50 51 52 52 53 53 54 54 54 54 54 55 55 55 54 54
50 50 51 53 54 54 55 55 56 56 57 56 57 57 57 57 55 54 53 52 51 51 50 48 46 45 46 46 46 46 46 46 47 47 48 48 47 46 46 47 48 49 50 50 51 51 52 53 53 54 54 54 55 56 56 57 58 58 58 59 59 59 59
52 52 51 51 52 52 52 53 53 53 53 53 54 54 55 55 55 54 53 52 51 50 50 49 49 49 49 48 49 49 49 49 50 50 51 52 52 52 51 50 51 52 53 53 53 53 53 54 55 55 55 56 56 56 57 58 59 59 60 60 60 61 61
54 53 52 51 51 51 51 51 51 51 51 52 53 53 54 54 55 55 54 53 52 52 52 52 53 53 53 53 52 52 52 52 52 52 52 53 54 55 54 53 52 52 53 53 53 53 53 53 54 55 55 56 56 56 57 58 58 59 59 60 60 60 60
53 53 52 52 51 51 51 50 50 51 51 51 52 52 53 54 55 55 55 54 54 53 53 53 54 55 55 54 53 52 52 52 52 52 52 52 52 53 53 54 53 52 52 53 53 53 53 53 54 54 55 55 55 56 56 57 57 58 59 59 59 59 60
52 52 52 52 52 52 51 51 51 51 51 52 52 52 52 53 53 53 54 53 53 53 52 51 51 52 53 52 52 52 51 51 51 51 51 51 51 51 51 52 52 52 52 52 52 52 53 53 54 54 55 55 55 56 56 57 57 58 58 58 59 59 59
51 51 51 51 51 51 51 51 51 52 52 52 53 53 53 53 53 53 53 53 53 53 52 52 51 51 51 51 51 51 51 50 50 50 50 50 50 51 51 50 50 51 51 51 51 52 52 53 54 54 55 55 56 56 56 57 57 57 58 58 58 59 59
51 50 50 50 50 49 49 49 49 50 51 52 52 52 52 52 53 53 53 53 53 53 53 53 52 52 52 51 51 51 51 50 49 49 49 50 50 51 51 50 50 50 50 50 51 51 52 53 53 54 54 55 55 56 56 56 56 57 57 57 58 58 58
49 49 49 48 48 48 48 48 48 48 49 49 49 49 49 50 50 51 51 51 51 51 51 52 52 52 52 51 51 51 50 49 49 49 49 49 50 50 50 50 50 50 50 51 51 52 53 53 53 53 54 55 55 56 56 56 57 57 57 58 58 58 59
49 48 48 47 47 47 47 47 47 47 47 47 47 46 45 46 46 47 47 47 47 47 48 48 48 49 49 49 49 49 49 48 48 48 48 48 49 49 50 50 50 50 51 51 51 52 52 52 52 53 53 54 54 55 56 56 57 57 58 58 58 59 59
48 48 48 47 47 47 47 47 47 46 46 46 45 44 44 44 45 45 44 44 45 45 45 45 45 45 45 46 46 46 46 46 46 46 46 46 46 47 48 48 48 49 49 50 50 50 50 50 50 50 51 52 53 53 54 55 56 57 57 58 59 59 60
Wind_Direction
303 305 304 302 298 293 288 285 284 284 283 283 283 283 284 284 284 283 282 281 280 278 275 273 271 268 265 262 259 258 258 260 262 264 265 266 267 268 266 267 267 265 263 262 262 262 262 265 265 263 263 264 264 260 261 269 270 263 253 246 243 241 239
303 305 304 301 298 292 288 283 281 281 281 281 282 281 281 281 281 281 280 279 276 274 272 270 268 265 263 261 259 257 256 256 259 262 264 264 265 266 265 264 265 265 262 261 259 258 258 260 260 260 261 260 258 261 270 275 270 268 265 253 244 241 241
302 303 301 297 294 290 286 282 280 279 279 279 280 280 279 278 277 277 277 276 275 273 272 270 268 264 261 260 260 260 258 257 259 262 264 265 265 266 266 263 262 262 260 259 258 258 258 260 260 261 262 261 260 264 270 271 266 266 271 268 253 243 241
300 299 295 290 288 286 283 281 279 279 280 280 280 281 281 279 277 276 275 275 274 273 272 270 269 267 263 261 260 260 260 260 261 264 266 267 267 268 267 264 261 260 258 256 257 258 260 261 262 262 262 261 261 263 265 265 264 266 267 267 263 252 245
297 293 289 284 281 281 279 278 278 279 281 283 283 283 283 284 282 280 279 277 276 274 272 271 269 269 267 266 264 262 261 261 261 264 267 269 269 268 268 266 264 261 259 257 256 258 260 262 262 262 260 259 260 261 262 264 264 265 266 265 262 258 254
292 287 281 277 276 276 275 274 275 278 280 282 284 285 285 286 286 285 283 280 278 276 273 271 269 267 266 266 266 266 264 263 263 264 266 269 269 268 267 266 265 264 262 260 259 259 260 261 262 262 260 259 259 258 259 261 263 262 261 261 260 260 260
285 278 273 272 272 272 272 271 272 275 279 281 282 284 286 286 286 286 285 283 281 279 277 275 273 270 267 265 264 265 265 264 264 264 265 267 268 268 267 265 264 264 264 263 262 262 263 263 263 263 261 259 257 256 256 258 259 258 257 257 256 256 257
279 270 266 267 269 270 269 270 274 276 278 282 283 284 286 287 286 285 284 283 281 279 279 277 276 275 272 269 266 263 263 262 262 262 263 264 265 266 266 264 262 261 262 263 263 263 264 265 265 264 263 261 257 256 257 258 257 256 256 256 254 254 255
275 266 263 263 265 268 268 269 275 279 280 282 284 285 286 286 285 284 282 282 280 278 277 275 275 275 275 275 272 269 266 263 261 259 260 261 262 264 265 264 262 259 258 259 260 261 262 264 265 264 264 263 261 259 258 258 258 257 256 254 251 252 253
270 263 261 262 262 265 268 271 274 279 280 280 280 281 282 283 283 282 281 280 280 278 276 273 272 271 272 273 273 273 271 269 265 262 259 258 258 260 263 264 264 262 259 258 259 261 262 262 263 263 263 263 262 261 259 258 257 258 258 255 253 251 250
263 260 259 259 261 262 267 274 275 275 276 277 279 278 277 278 277 277 278 277 276 276 274 273 271 270 270 270 270 271 271 271 269 266 262 259 256 255 256 259 262 263 263 261 261 262 264 265 264 263 261 262 262 261 260 257 255 256 258 257 254 253 252
258 257 258 258 261 264 267 273 276 274 272 274 277 277 276 275 273 273 273 272 271 271 271 271 270 270 270 269 269 268 269 269 269 268 265 261 258 255 254 254 255 258 261 261 260 261 263 265 266 264 261 260 261 262 261 259 255 253 255 256 254 252 251
258 257 258 259 261 265 268 273 276 275 275 275 277 278 276 272 270 268 267 267 267 266 267 267 267 268 268 268 269 269 268 268 268 268 268 267 264 261 258 256 255 254 255 256 256 256 257 259 260 260 260 258 258 259 260 261 259 256 255 255 255 253 251
260 262 268 267 262 259 263 269 271 273 275 276 279 280 278 274 270 267 264 263 263 263 264 265 265 265 265 264 265 267 268 268 268 268 269 271 271 269 265 262 260 258 257 256 255 254 253 253 254 255 255 256 255 255 256 258 260 260 259 259 259 257 255
260 266 276 273 261 255 259 265 267 269 270 271 274 276 276 275 272 269 266 264 263 263 262 263 265 265 266 266 264 263 265 267 269 270 270 271 271 271 271 268 266 264 262 261 260 258 257 256 255 255 255 256 256 255 255 256 258 259 259 260 261 261 261
266 269 272 271 265 261 262 264 266 267 266 266 268 269 268 269 269 268 269 268 267 267 266 266 268 268 268 268 267 264 263 264 268 270 271 272 271 271 272 273 272 269 267 266 265 264 263 262 261 261 260 260 260 260 259 258 259 260 260 260 260 262 263
269 270 270 270 270 267 266 267 266 265 265 264 265 265 263 261 262 264 266 267 266 268 271 271 273 272 269 266 266 266 264 263 263 265 266 268 270 271 272 272 274 274 272 270 269 268 268 267 266 265 264 263 263 263 263 263 263 263 264 264 263 263 264
266 267 267 268 269 267 268 268 265 265 266 264 265 268 264 259 258 261 263 263 262 265 270 272 271 270 267 267 266 265 264 263 260 259 260 262 264 268 271 272 273 274 275 275 274 273 272 271 270 268 267 266 265 264 263 263 264 264 265 266 267 267 266
266 267 269 269 269 267 267 266 263 265 267 265 264 267 267 262 261 263 263 263 264 266 269 272 271 266 266 271 272 267 263 263 262 260 260 260 260 263 267 271 272 272 274 275 276 276 276 275 275 274 273 271 270 268 266 264 263 263 264 265 266 267 268
267 268 269 270 271 270 267 263 261 263 265 263 262 265 269 269 265 261 261 267 276 278 274 273 271 266 262 266 271 270 266 263 262 262 263 264 264 265 267 269 271 271 272 273 274 274 274 274 274 274 273 272 272 271 270 268 267 266 265 265 265 265 266
270 269 269 270 271 271 269 266 264 263 263 263 262 264 269 271 266 259 261 272 281 282 278 275 274 273 267 262 263 268 270 267 264 263 263 265 266 268 270 272 273 274 274 275 275 274 273 273 273 272 271 270 270 269 269 268 268 267 268 267 267 265 265
271 272 272 272 271 270 271 270 270 268 267 266 265 265 268 270 269 267 270 275 277 277 275 275 277 279 276 266 260 262 270 273 271 268 266 267 268 269 271 272 273 274 275 277 277 277 276 276 275 274 273 271 270 269 268 268 268 267 267 267 267 267 267
270 271 272 273 273 272 272 272 273 273 272 271 270 269 269 270 272 273 273 274 274 274 274 274 275 276 274 269 265 265 270 274 274 274 273 273 273 274 273 273 272 272 273 274 275 275 276 276 276 275 274 274 273 271 270 270 270 269 269 269 268 268 268
267 269 270 271 272 273 273 274 274 274 275 276 275 274 273 273 273 274 274 274 274 274 274 274 273 273 272 271 270 270 273 275 276 276 275 273 272 274 274 273 272 271 271 271 272 273 274 274 274 274 274 274 274 273 272 271 271 271 270 270 270 269 269
265 267 268 269 270 272 273 273 274 274 275 276 276 276 276 276 275 275 275 274 274 274 275 274 274 272 270 270 270 271 274 277 278 278 277 275 273 272 271 271 271 271 271 271 272 272 272 272 272 272 273 273 273 272 272 272 272 271 271 270 270 270 270
265 266 267 268 269 270 271 272 272 273 274 274 274 274 275 275 276 277 277 276 275 275 274 273 272 270 269 268 269 270 272 274 275 276 276 275 274 272 270 270 270 270 271 271 272 272 272 271 271 271 272 273 273 272 272 272 272 272 272 272 272 272 272
267 268 269 269 269 270 270 271 271 272 272 273 273 273 273 274 275 276 276 277 277 276 275 273 271 270 269 270 270 270 271 273 274 274 274 275 274 273 271 271 270 270 271 272 273 273 272 271 271 271 272 272 273 273 273 273 273 273 273 273 273 273 273
269 271 271 270 270 270 270 270 270 271 271 272 272 272 273 273 274 274 275 275 276 276 275 274 273 272 271 271 272 273 274 274 275 275 276 277 277 276 276 275 274 274 274 275 274 274 273 272 271 271 271 272 272 272 273 273 273 274 274 274 274 274 274
269 271 272 271 270 270 269 269 270 270 271 271 271 272 272 272 272 273 274 274 273 273 273 273 274 274 273 273 274 274 275 276 276 277 278 279 280 281 280 279 277 276 276 276 275 274 273 273 273 272 272 272 272 272 272 272 272 272 272 273 273 273 273
268 269 269 268 268 268 268 268 268 268 269 269 269 270 271 270 271 272 273 273 273 272 272 273 274 274 275 275 275 276 276 277 277 278 279 280 281 281 281 280 278 277 276 276 276 276 275 274 273 273 273 273 273 272 272 271 272 271 272 272 272 272 272
267 267 266 266 266 265 265 265 266 266 266 266 266 267 267 268 269 271 273 273 274 273 273 273 274 274 274 275 275 276 276 277 278 278 278 278 278 278 278 277 277 277 276 276 276 276 276 275 274 274 274 273 273 273 272 272 272 272 272 272 272 272 272
267 266 266 265 265 264 264 265 265 265 265 265 265 266 266 267 268 269 271 272 272 273 273 272 272 273 273 274 274 274 275 275 275 276 276 276 276 275 275 275 275 275 275 275 274 274 274 274 274 274 274 274 274 273 273 273 272 272 272 272 272 272 271
267 266 266 265 265 265 264 264 265 266 266 266 266 266 266 267 267 268 269 270 271 272 272 273 273 273 273 274 274 274 274 274 275 275 275 276 275 275 275 275 275 274 274 274 274 273 273 273 273 273 273 274 274 273 273 273 273 273 273 272 272 272 272
267 267 267 266 266 265 265 265 265 265 266 266 267 267 267 267 268 268 268 269 270 271 272 272 272 273 273 273 274 274 275 275 275 275 275 275 275 275 275 275 275 275 275 274 274 273 273 273 274 274 274 274 274 274 274 274 274 274 274 273 273 272 272
268 268 268 267 267 267 267 266 266 265 265 266 266 267 268 269 269 269 269 270 270 270 271 271 271 271 272 272 273 273 274 274 274 274 274 274 274 275 275 275 275 275 275 274 274 275 275 275 275 275 275 275 275 275 275 275 275 275 274 274 273 273 272
268 269 269 269 269 268 268 267 267 267 267 267 266 266 266 267 267 268 269 270 270 270 270 270 271 271 271 271 271 272 273 273 273 273 273 273 274 274 274 274 274 274 274 275 275 275 275 275 275 275 275 275 275 275 275 274 274 274 274 273 273 273 272
268 268 268 269 268 268 269 269 269 269 269 268 267 266 266 266 266 267 268 268 268 269 269 270 271 271 272 272 272 273 273 272 272 272 272 273 273 274 274 274 274 274 274 275 275 275 275 275 275 274 274 274 274 274 273 273 273 272 272 272 272 272 272
Height
5762 5762 5762 5762 5762 5762 5761 5761 5761 5761 5761 5761 5761 5761 5761 5761 5761 5761 5761 5761 5762 5762 5763 5763 5764 5765 5766 5767 5767 5767 5768 5768 5768 5768 5769 5769 5769 5770 5770 5771 5771 5772 5773 5774 5774 5775 5775 5775 5776 5776 5777 5777 5778 5778 5779 5780 5780 5780 5780 5781 5782 5784 5787
5761 5760 5760 5760 5760 5760 5760 5759 5759 5759 5759 5759 5759 5759 5759 5759 5759 5759 5759 5759 5760 5760 5761 5761 5762 5762 5763 5764 5764 5765 5765 5766 5766 5766 5766 5766 5767 5767 5768 5768 5768 5769 5769 5770 5771 5772 5772 5773 5774 5774 5774 5775 5775 5776 5776 5777 5777 5777 5777 5777 5777 5780 5782
5759 5759 5758 5758 5758 5758 5758 5758 5757 5757 5757 5757 5757 5757 5757 5757 5757 5757 5757 5758 5758 5758 5759 5759 5759 5760 5760 5761 5761 5762 5762 5763 5763 5763 5764 5764 5764 5765 5765 5766 5766 5766 5767 5767 5767 5768 5769 5770 5770 5771 5771 5772 5772 5773 5773 5773 5773 5774 5774 5774 5774 5775 5777
5757 5756 5756 5756 5756 5756 5756 5756 5756 5755 5755 5755 5756 5756 5755 5756 5756 5756 5756 5756 5756 5756 5756 5757 5757 5758 5758 5758 5759 5759 5760 5760 5761 5761 5761 5761 5762 5762 5763 5763 5764 5764 5764 5765 5765 5765 5765 5766 5766 5767 5768 5768 5768 5769 5769 5769 5770 5770 5771 5771 5771 5772 5773
5754 5754 5754 5754 5754 5754 5754 5754 5754 5754 5753 5753 5754 5754 5754 5754 5754 5754 5754 5754 5754 5754 5754 5754 5755 5755 5755 5756 5756 5756 5757 5757 5758 5758 5758 5759 5759 5760 5760 5761 5761 5762 5762 5762 5762 5762 5762 5762 5762 5764 5765 5765 5765 5765 5765 5765 5766 5767 5767 5768 5768 5769 5770
5752 5752 5752 5752 5752 5752 5752 5752 5752 5752 5752 5752 5752 5752 5752 5752 5752 5752 5752 5752 5752 5752 5752 5752 5752 5753 5753 5753 5753 5754 5754 5754 5755 5755 5755 5756 5756 5757 5758 5758 5758 5759 5759 5760 5760 5759 5759 5759 5759 5760 5761 5762 5762 5762 5762 5762 5763 5764 5765 5765 5766 5766 5768
5749 5749 5749 5749 5750 5750 5750 5750 5750 5750 5750 5750 5750 5750 5750 5751 5750 5750 5750 5750 5750 5750 5749 5750 5750 5750 5750 5751 5751 5751 5751 5751 5752 5752 5752 5753 5753 5754 5755 5755 5756 5756 5756 5757 5757 5757 5757 5757 5757 5757 5758 5759 5759 5759 5759 5760 5761 5761 5762 5763 5763 5764 5765
5747 5747 5747 5747 5747 5747 5748 5747 5747 5748 5748 5748 5748 5748 5749 5749 5749 5748 5748 5748 5748 5748 5747 5747 5748 5748 5748 5748 5748 5749 5749 5749 5749 5749 5750 5750 5750 5751 5751 5752 5753 5753 5754 5754 5754 5754 5754 5755 5755 5755 5755 5756 5756 5757 5757 5757 5758 5758 5759 5760 5760 5761 5762
5744 5744 5745 5745 5745 5745 5745 5745 5745 5745 5745 5746 5746 5746 5746 5746 5746 5746 5746 5746 5746 5746 5746 5746 5746 5746 5746 5746 5746 5746 5746 5747 5747 5747 5747 5747 5748 5748 5749 5749 5750 5751 5751 5752 5752 5752 5752 5753 5753 5753 5753 5753 5754 5754 5755 5755 5755 5755 5757 5757 5757 5758 5759
5741 5742 5742 5743 5743 5743 5743 5743 5743 5743 5743 5743 5744 5744 5744 5744 5744 5744 5744 5744 5744 5744 5744 5744 5744 5744 5744 5744 5744 5744 5744 5744 5745 5745 5745 5745 5745 5746 5746 5747 5747 5748 5749 5749 5750 5750 5750 5751 5751 5751 5751 5751 5752 5752 5753 5753 5754 5754 5754 5755 5755 5756 5757
5738 5739 5740 5741 5741 5741 5741 5741 5741 5741 5741 5741 5741 5741 5741 5741 5741 5741 5742 5742 5742 5742 5742 5742 5742 5742 5742 5742 5742 5742 5742 5742 5743 5743 5743 5743 5743 5744 5744 5744 5745 5745 5746 5747 5747 5747 5748 5748 5749 5749 5750 5750 5750 5750 5751 5752 5752 5752 5752 5753 5754 5755 5755
5735 5737 5738 5738 5739 5739 5739 5739 5739 5739 5739 5739 5738 5739 5739 5739 5739 5739 5739 5739 5739 5739 5739 5739 5739 5739 5739 5739 5740 5740 5740 5740 5740 5741 5741 5741 5741 5742 5742 5742 5742 5743 5743 5744 5745 5745 5746 5746 5746 5747 5747 5748 5748 5748 5749 5749 5750 5751 5751 5751 5752 5753 5754
5733 5734 5735 5736 5737 5737 5737 5737 5737 5737 5737 5737 5737 5736 5736 5736 5736 5736 5736 5736 5736 5737 5737 5737 5737 5737 5737 5736 5737 5737 5737 5738 5738 5738 5739 5739 5739 5740 5740 5740 5741 5741 5741 5742 5742 5743 5743 5744 5744 5744 5745 5745 5746 5746 5746 5747 5747 5748 5748 5749 5749 5750 5751
5730 5731 5732 5733 5735 5735 5735 5735 5735 5735 5735 5735 5735 5735 5734 5734 5734 5734 5733 5733 5733 5734 5734 5734 5734 5734 5734 5734 5734 5734 5734 5734 5735 5735 5736 5737 5737 5738 5738 5738 5739 5739 5739 5739 5740 5740 5740 5741 5741 5742 5742 5742 5743 5743 5744 5744 5744 5745 5746 5746 5746 5747 5748
5727 5727 5728 5730 5732 5733 5733 5732 5732 5733 5733 5732 5733 5733 5732 5732 5731 5731 5731 5731 5731 5731 5731 5731 5731 5731 5731 5731 5731 5731 5731 5731 5732 5732 5733 5734 5734 5735 5735 5736 5736 5737 5737 5737 5737 5738 5738 5738 5739 5739 5740 5740 5740 5741 5741 5741 5742 5742 5742 5743 5743 5744 5744
5724 5724 5724 5726 5728 5729 5730 5730 5730 5730 5730 5729 5730 5730 5730 5729 5729 5729 5729 5729 5729 5729 5729 5729 5729 5728 5728 5728 5728 5729 5729 5729 5729 5730 5730 5730 5731 5732 5732 5733 5733 5734 5734 5734 5735 5735 5736 5736 5736 5737 5737 5737 5738 5738 5739 5739 5739 5739 5739 5739 5740 5740 5740
5720 5721 5720 5721 5723 5725 5726 5727 5727 5726 5726 5726 5726 5726 5727 5727 5726 5726 5726 5727 5727 5727 5727 5727 5726 5725 5725 5726 5726 5726 5726 5727 5727 5727 5727 5728 5728 5728 5729 5730 5730 5730 5731 5731 5732 5732 5733 5733 5733 5734 5734 5735 5735 5735 5735 5736 5736 5736 5736 5736 5736 5736 5737
5716 5717 5717 5718 5719 5720 5721 5722 5723 5723 5723 5723 5723 5723 5723 5723 5723 5723 5724 5724 5724 5724 5724 5724 5723 5723 5722 5723 5724 5724 5724 5724 5725 5725 5725 5725 5725 5726 5726 5726 5727 5727 5728 5728 5729 5729 5730 5730 5730 5731 5731 5731 5732 5732 5732 5732 5733 5733 5733 5733 5733 5732 5733
5712 5712 5713 5714 5715 5716 5717 5718 5719 5719 5719 5720 5720 5720 5720 5720 5720 5720 5721 5721 5721 5721 5721 5721 5721 5720 5720 5721 5721 5722 5722 5721 5721 5722 5722 5723 5723 5724 5723 5723 5724 5724 5724 5725 5725 5726 5726 5727 5727 5727 5727 5728 5728 5728 5728 5729 5729 5729 5729 5729 5729 5729 5728
5708 5708 5709 5710 5710 5711 5712 5714 5714 5715 5715 5716 5716 5716 5716 5716 5716 5716 5717 5717 5717 5718 5718 5718 5717 5717 5718 5718 5718 5718 5718 5718 5718 5719 5720 5720 5720 5721 5721 5721 5721 5721 5721 5721 5722 5722 5723 5723 5723 5723 5724 5724 5724 5724 5724 5724 5725 5725 5725 5725 5725 5725 5725
5703 5704 5705 5705 5706 5706 5707 5709 5709 5710 5711 5711 5712 5712 5712 5713 5712 5712 5712 5713 5713 5714 5714 5714 5713 5713 5714 5715 5714 5714 5714 5714 5715 5715 5716 5717 5717 5717 5717 5717 5717 5717 5717 5717 5718 5718 5719 5719 5719 5719 5720 5720 5720 5720 5720 5720 5720 5720 5721 5721 5721 5721 5721
5697 5698 5699 5700 5701 5701 5702 5703 5704 5705 5706 5707 5707 5707 5708 5708 5708 5708 5708 5709 5710 5710 5710 5710 5709 5709 5710 5711 5711 5711 5711 5711 5712 5712 5712 5713 5713 5714 5714 5714 5713 5713 5713 5713 5713 5714 5714 5714 5715 5715 5715 5715 5715 5715 5715 5715 5715 5715 5715 5716 5716 5716 5716
5693 5693 5694 5694 5695 5696 5697 5697 5698 5699 5700 5701 5702 5702 5703 5703 5703 5703 5703 5704 5705 5705 5706 5705 5705 5704 5704 5705 5707 5707 5706 5707 5708 5709 5709 5709 5709 5709 5709 5709 5709 5709 5709 5709 5708 5708 5709 5709 5709 5709 5709 5709 5710 5710 5710 5710 5710 5710 5710 5710 5710 5710 5710
5688 5689 5689 5689 5689 5690 5691 5691 5692 5693 5693 5694 5695 5696 5697 5697 5697 5697 5698 5699 5699 5700 5700 5700 5699 5699 5699 5699 5700 5701 5700 5700 5702 5703 5704 5704 5705 5704 5704 5704 5704 5704 5704 5704 5703 5703 5703 5704 5703 5703 5703 5703 5703 5703 5703 5704 5704 5704 5704 5705 5705 5705 5705
5683 5684 5684 5684 5685 5685 5685 5686 5686 5687 5688 5688 5688 5689 5689 5690 5691 5691 5692 5693 5693 5694 5694 5693 5693 5693 5692 5692 5693 5694 5695 5695 5695 5696 5697 5698 5699 5699 5699 5698 5698 5698 5698 5698 5698 5698 5698 5698 5697 5697 5697 5697 5697 5697 5696 5697 5697 5697 5697 5698 5698 5698 5698
5678 5678 5679 5679 5679 5679 5679 5680 5680 5680 5681 5682 5682 5683 5683 5683 5683 5684 5684 5685 5686 5687 5687 5687 5687 5687 5687 5687 5687 5688 5689 5689 5690 5690 5690 5690 5692 5693 5693 5692 5692 5692 5692 5692 5692 5692 5692 5691 5691 5690 5690 5690 5690 5690 5689 5689 5689 5689 5690 5690 5691 5691 5690
5672 5673 5673 5673 5673 5673 5673 5673 5673 5673 5674 5674 5675 5675 5676 5677 5677 5677 5678 5678 5678 5679 5680 5680 5680 5680 5680 5681 5681 5682 5683 5683 5683 5684 5683 5684 5685 5686 5686 5686 5686 5685 5685 5685 5685 5685 5685 5684 5684 5684 5683 5683 5683 5682 5682 5681 5681 5681 5681 5682 5682 5683 5682
5666 5666 5667 5667 5667 5666 5666 5666 5666 5666 5666 5667 5667 5668 5669 5669 5670 5671 5672 5672 5672 5672 5673 5673 5674 5674 5674 5675 5675 5676 5676 5676 5676 5676 5676 5676 5677 5678 5679 5679 5679 5678 5678 5678 5678 5677 5677 5677 5676 5676 5676 5676 5675 5675 5674 5673 5673 5673 5673 5673 5673 5673 5673
5659 5660 5660 5660 5660 5660 5660 5660 5660 5660 5660 5660 5660 5661 5662 5662 5664 5665 5665 5666 5666 5666 5666 5666 5667 5667 5667 5668 5669 5669 5669 5669 5669 5669 5669 5668 5668 5669 5670 5671 5670 5670 5669 5669 5669 5669 5669 5668 5668 5667 5667 5667 5667 5667 5666 5665 5664 5665 5664 5664 5664 5664 5664
5653 5653 5653 5653 5653 5653 5653 5653 5653 5653 5654 5654 5654 5655 5655 5656 5657 5658 5658 5658 5658 5659 5659 5659 5659 5659 5660 5660 5661 5661 5661 5662 5662 5662 5662 5661 5661 5661 5661 5661 5661 5661 5660 5660 5660 5660 5660 5659 5659 5658 5658 5658 5658 5658 5657 5656 5656 5656 5655 5655 5655 5655 5655
5645 5645 5645 5645 5646 5646 5646 5646 5646 5646 5647 5647 5648 5648 5649 5651 5651 5651 5650 5650 5650 5651 5651 5652 5652 5652 5652 5652 5653 5653 5654 5654 5654 5654 5654 5654 5654 5653 5653 5652 5653 5653 5652 5652 5652 5652 5651 5650 5650 5649 5649 5649 5649 5648 5648 5647 5647 5647 5646 5646 5646 5645 5645
5637 5637 5637 5637 5638 5638 5639 5639 5639 5639 5640 5640 5641 5642 5644 5644 5645 5644 5644 5643 5642 5643 5643 5644 5644 5644 5644 5644 5645 5645 5646 5646 5647 5646 5646 5646 5646 5646 5646 5646 5645 5645 5645 5645 5644 5644 5643 5642 5641 5641 5641 5640 5640 5639 5638 5638 5638 5638 5637 5637 5636 5636 5636
5629 5630 5630 5630 5631 5631 5631 5632 5632 5632 5632 5632 5633 5635 5637 5637 5637 5637 5637 5636 5635 5635 5636 5636 5637 5636 5636 5637 5637 5637 5638 5638 5639 5639 5638 5638 5638 5638 5638 5638 5638 5638 5638 5637 5636 5636 5635 5634 5634 5633 5633 5632 5631 5631 5630 5629 5629 5628 5628 5628 5627 5627 5626
5622 5622 5623 5623 5624 5624 5624 5625 5625 5625 5625 5625 5626 5628 5630 5630 5630 5630 5629 5629 5629 5629 5628 5628 5629 5629 5629 5629 5629 5629 5629 5630 5631 5631 5631 5630 5630 5630 5630 5631 5630 5630 5630 5629 5628 5627 5627 5626 5626 5626 5625 5624 5623 5622 5621 5621 5620 5619 5619 5618 5618 5617 5617
5614 5615 5615 5616 5617 5617 5617 5617 5617 5618 5618 5618 5620 5622 5623 5623 5622 5622 5622 5622 5622 5622 5621 5621 5621 5621 5622 5622 5622 5622 5622 5623 5623 5623 5623 5623 5622 5622 5622 5623 5623 5622 5621 5620 5620 5619 5619 5619 5618 5618 5617 5616 5615 5614 5613 5612 5611 5611 5610 5609 5608 5608 5607
5607 5608 5608 5609 5609 5609 5609 5609 5610 5610 5610 5611 5613 5615 5616 5616 5615 5614 5614 5615 5615 5614 5614 5614 5614 5614 5615 5615 5615 5615 5616 5616 5616 5616 5616 5616 5615 5614 5614 5615 5615 5614 5613 5612 5612 5611 5611 5611 5610 5609 5608 5607 5606 5605 5605 5604 5603 5601 5601 5600 5599 5598 5597
5601 5601 5601 5602 5602 5602 5602 5602 5603 5603 5603 5604 5606 5608 5608 5608 5608 5608 5608 5608 5608 5607 5607 5607 5608 5608 5608 5608 5609 5609 5609 5609 5609 5609 5609 5609 5608 5607 5607 5607 5607 5606 5606 5605 5604 5604 5604 5603 5602 5601 5600 5599 5598 5597 5596 5595 5594 5592 5591 5590 5589 5589 5588